Погода в Великополье

Россия / Республика Марий Эл     56°48′44″N   48°04′41″E
темп.,
°C
ветер,
м/с
пор.,
м/с
влажн.,
%
обл.,
%
осадки,
мм/ч
давл.,
гПа
погр.,
м
24 января, пн
пн2400:00−14з11100100 0.1 103510
03:00−11ссв0099100 0.1 103521
06:00−9ююв119799 0.1 103618
09:00−8зюз119299 0.1 1037103
12:00−8ю119485 0.0 1036136
15:00−11ю119867 0.1 103610
18:00−18ю1110099 0.0 10369
21:00−20ю22100100 0.0 103614
25 января, вт
вт2500:00−19ю22100100 0.0 103436
03:00−21ю22100100 0.1 103316
06:00−21ю2410091 0.0 103241
09:00−19ю3710084 0.0 1030102
12:00−12ююз369448 0.0 1028186
15:00−11ю37935 0.0 1026194
18:00−15ю49945 0.0 1024148
21:00−17ю399575 0.0 1023149
26 января, ср
ср2600:00−17ю389799 0.0 1022131
03:00−15ююв389676 0.0 1021162
06:00−15ююв399778 0.1 1019191
09:00−13ююв389697 0.1 1018221
12:00−10ю4693100 0.1 1018304
15:00−9ю369589 0.2 1017330
18:00−11ю369776 0.1 1017154
21:00−12ю259796 0.3 1017111
27 января, чт
чт2700:00−11ююз2496100 0.3 1017132
03:00−11ююз2597100 0.4 1017143
06:00−13ююз2698100 0.1 1017110
09:00−11ю3696100 0.3 1018213
12:00−9ююз4691100 0.3 1018469
15:00−10ююз3693100 0.3 1018405
18:00−14ю379892 0.1 1019143
21:00−18ю25100100 0.1 101978
28 января, пт
пт2800:00−20ю24100100 0.0 101958
03:00−19ю2510099 0.1 101973
06:00−19ю2610099 0.1 101985
09:00−18ю3710098 0.1 1019127
12:00−12ю369599 0.0 1017216
15:00−10ююв379687 0.1 1017210
18:00−13ююв399758 0.0 1017141
21:00−14ююв399790 0.0 1016137